Change the Weather History Date:

Thursday, April 17, 2014

  Actual Average Record
Temperature  
Mean Temperature 62 °F -  
Max Temperature 75 °F 81 °F 91 °F (2002)
Min Temperature 48 °F 51 °F 35 °F (1999)
Degree Days  
Heating Degree Days 4    
Growing Degree Days 12 (Base 50)    
Moisture  
Dew Point 53 °F    
Average Humidity 77    
Maximum Humidity 96    
Minimum Humidity 48    
Precipitation  
Precipitation 0.36 in - - ()
Sea Level Pressure  
Sea Level Pressure 30.22 in    
Wind  
Wind Speed 6 mph (ENE)    
Max Wind Speed 12 mph    
Max Gust Speed 18 mph    
Visibility 8 miles    
Events Rain , Thunderstorm    
Averages and records for this station are not official NWS values.
T = Trace of Precipitation, MM = Missing Value Source: NWS Daily Summary

Daily Weather History Graph

Daily Weather History Graph

Search for Another Location

Airport or City:

Trip Planner

Search our weather history database for the weather conditions in past years. The results will help you decide how hot, cold, wet, or windy it might be!

Date:

Astronomy

Apr. 17, 2014 Rise Set
Actual Time 6:16 AM CDT 7:15 PM CDT
Civil Twilight 5:51 AM CDT 7:40 PM CDT
Nautical Twilight 5:22 AM CDT 8:09 PM CDT
Astronomical Twilight 4:51 AM CDT 8:40 PM CDT
Moon 9:52 PM CDT (4/17) 7:54 AM CDT (4/17)
Length of Visible Light 13h 48m
Length of Day
12h 59m
Waning Gibbous, 93% of the Moon is Illuminated
Apr 17
Waning Gibbous
Apr 22
Last Quarter
Apr 29
New
May 6
First Quarter
May 14
Full

Hourly Weather History & Observations

Time (CDT) Temp. Dew Point Humidity Pressure Visibility Wind Dir Wind Speed Gust Speed Precip Events Conditions
12:53 AM 48.9 °F 42.1 °F 77% 30.21 in 10.0 mi East 4.6 mph - N/A   Clear
1:53 AM 48.0 °F 43.0 °F 83% 30.21 in 10.0 mi Calm Calm - N/A   Clear
2:53 AM 48.9 °F 45.0 °F 86% 30.20 in 10.0 mi ENE 4.6 mph - N/A   Clear
3:53 AM 50.0 °F 45.0 °F 83% 30.21 in 10.0 mi East 5.8 mph - N/A   Scattered Clouds
4:53 AM 48.9 °F 46.0 °F 90% 30.23 in 10.0 mi ENE 3.5 mph - N/A   Mostly Cloudy
5:53 AM 51.1 °F 46.9 °F 86% 30.24 in 10.0 mi ENE 8.1 mph - N/A   Overcast
6:11 AM 51.1 °F 46.0 °F 83% 30.25 in 10.0 mi East 8.1 mph - N/A   Overcast
6:53 AM 52.0 °F 46.0 °F 80% 30.26 in 10.0 mi East 8.1 mph - N/A   Overcast
7:35 AM 53.1 °F 46.0 °F 77% 30.27 in 10.0 mi Variable 6.9 mph - N/A   Mostly Cloudy
7:53 AM 55.0 °F 46.0 °F 72% 30.27 in 10.0 mi East 8.1 mph - N/A   Mostly Cloudy
8:53 AM 59.0 °F 48.0 °F 67% 30.28 in 10.0 mi ENE 11.5 mph - N/A   Mostly Cloudy
9:53 AM 61.0 °F 48.9 °F 64% 30.29 in 10.0 mi ENE 9.2 mph - N/A   Mostly Cloudy
10:53 AM 66.9 °F 51.1 °F 57% 30.28 in 10.0 mi Variable 6.9 mph - N/A   Scattered Clouds
12:53 PM 75.0 °F 54.0 °F 48% 30.24 in 10.0 mi NNE 10.4 mph - N/A   Mostly Cloudy
1:53 PM 73.9 °F 54.0 °F 50% 30.21 in 10.0 mi East 9.2 mph 18.4 mph N/A   Scattered Clouds
2:53 PM 73.9 °F 54.0 °F 50% 30.19 in 10.0 mi Variable 4.6 mph - N/A   Overcast
3:53 PM 71.1 °F 55.0 °F 57% 30.18 in 10.0 mi ENE 11.5 mph - N/A   Overcast
4:53 PM 70.0 °F 55.0 °F 59% 30.19 in 10.0 mi ENE 11.5 mph - N/A   Overcast
5:53 PM 69.1 °F 55.0 °F 61% 30.18 in 10.0 mi East 9.2 mph - N/A   Overcast
6:53 PM 68.0 °F 55.0 °F 63% 30.18 in 10.0 mi ENE 5.8 mph - N/A   Overcast
7:53 PM 66.9 °F 55.0 °F 66% 30.17 in 10.0 mi East 11.5 mph - 0.00 in   Overcast
8:53 PM 64.9 °F 55.9 °F 73% 30.18 in 10.0 mi NE 6.9 mph - 0.00 in Rain Light Rain
9:53 PM 63.0 °F 57.0 °F 81% 30.21 in 9.0 mi East 3.5 mph - 0.00 in Rain Light Rain
10:11 PM 61.0 °F 57.9 °F 90% 30.22 in 2.5 mi Variable 3.5 mph - 0.04 in Rain , Thunderstorm Heavy Thunderstorms and Rain
10:19 PM 61.0 °F 59.0 °F 93% 30.22 in 3.0 mi Calm Calm - 0.05 in Rain , Thunderstorm Light Thunderstorms and Rain
10:23 PM 61.0 °F 57.9 °F 90% 30.21 in 1.8 mi NNE 5.8 mph - 0.13 in Rain , Thunderstorm Heavy Rain
10:33 PM 60.1 °F 57.9 °F 93% 30.20 in 2.0 mi NNE 5.8 mph - 0.16 in Rain , Thunderstorm Light Rain
10:37 PM 60.1 °F 59.0 °F 96% 30.20 in 5.0 mi NE 4.6 mph - 0.16 in Rain Light Rain
10:53 PM 61.0 °F 59.0 °F 93% 30.20 in 3.0 mi North 4.6 mph - 0.17 in Rain Light Rain
11:05 PM 61.0 °F 59.0 °F 93% 30.21 in 2.0 mi NNE 4.6 mph - 0.02 in Rain Heavy Rain
11:13 PM 60.1 °F 59.0 °F 96% 30.21 in 1.2 mi NNE 3.5 mph - 0.08 in Rain Heavy Rain
11:24 PM 60.1 °F 59.0 °F 96% 30.21 in 2.5 mi NE 6.9 mph - 0.11 in Rain Heavy Rain
11:53 PM 60.1 °F 57.9 °F 93% 30.20 in 3.0 mi NE 6.9 mph - 0.19 in Rain Rain